Location: Unspecified
(0.0000°N, 0.0000°E)
Time: 03:54:48
(UTC+00:00)

FENGYUN 1C DEB - Visible Passes

Search period start: 14 February 2026 00:00
Search period end: 24 February 2026 00:00
Orbit: 819 x 963 km, 99.2° (Epoch: 3 October)

Date Brightness Start Highest point End Pass type
(mag) Time Alt. Az. Time Alt. Az. Time Alt. Az.
14 Feb ? 03:48:10 10° SE 03:53:12 32° ENE 03:55:38 23° NE visible
14 Feb ? 05:30:18 10° SSW 05:34:10 19° WSW 05:37:59 10° WNW visible
15 Feb ? 03:45:58 10° SE 03:50:52 30° ENE 03:53:17 22° NE visible
15 Feb ? 05:27:49 10° SSW 05:31:52 20° WSW 05:35:49 10° WNW visible
16 Feb ? 03:43:46 10° SE 03:48:33 28° ENE 03:50:58 21° NE visible
16 Feb ? 05:25:22 10° SSW 05:29:33 21° WSW 05:33:39 10° WNW visible
17 Feb ? 03:41:35 10° SE 03:46:14 26° ENE 03:48:39 19° NE visible
17 Feb ? 05:22:55 10° SSW 05:27:14 22° WSW 05:31:20 11° NW visible
18 Feb ? 03:39:25 10° SE 03:43:55 24° ENE 03:46:19 18° NE visible
18 Feb ? 05:20:29 10° SSW 05:24:55 24° WSW 05:29:00 11° NW visible
19 Feb ? 03:37:15 10° SE 03:41:36 23° ENE 03:44:00 17° NE visible
19 Feb ? 05:18:03 10° SSW 05:22:37 25° WSW 05:26:41 12° NW visible
20 Feb ? 03:35:06 10° SE 03:39:17 21° ENE 03:41:41 16° NE visible
20 Feb ? 05:15:38 10° SSW 05:20:18 27° WSW 05:24:23 12° NW visible
21 Feb ? 03:32:58 10° ESE 03:36:57 20° ENE 03:39:23 15° NE visible
21 Feb ? 05:13:14 10° SSW 05:17:59 28° WSW 05:22:05 12° NW visible
22 Feb ? 03:30:51 10° ESE 03:34:37 19° ENE 03:37:05 14° NE visible
22 Feb ? 05:10:49 10° SSW 05:15:41 30° WSW 05:19:47 13° NW visible
23 Feb ? 03:28:45 10° ESE 03:32:18 17° ENE 03:34:48 13° NE visible
23 Feb ? 05:08:25 10° SSW 05:13:21 32° WSW 05:17:30 13° NW visible
